This demonstration page uses our WeatherBlox Daily Observations layout. Learn more.

Left ArrowRight Arrow

31.31129, -92.44514

Hourly Observations for October 7, 2022

Temp ( °F °C ) Dew Point ( °F °C ) Humidity (%) Winds ( mph kmh ) Pressure ( in mb ) Visibility ( mi km ) Precip ( " mm )
12:53 am 00:53 Clear 62 16.7 54 12.2 75 75 Calm 30.13 1020 10 16 0.00 0.00
1:53 am 01:53 Clear 62 16.7 53 11.7 72 72 Calm 30.12 1020 10 16 0.00 0.00
2:53 am 02:53 Clear 62 16.7 57 13.9 84 84 Calm 30.13 1020 10 16 0.00 0.00
3:53 am 03:53 Clear 60 15.6 54 12.2 80 80 Calm 30.13 1020 10 16 0.00 0.00
4:53 am 04:53 Clear 60 15.6 56 13.3 86 86 Calm 30.13 1020 9 14 0.00 0.00
5:53 am 05:53 Clear 58 14.4 55 12.8 90 90 NNW 3 6 30.14 1021 9 14 0.00 0.00
6:53 am 06:53 Clear 60 15.6 54 12.2 80 80 Calm 30.16 1021 9 14 0.00 0.00
7:53 am 07:53 Sunny 61 16.1 56 13.3 83 83 Calm 30.18 1022 8 13 0.00 0.00
8:53 am 08:53 Sunny 70 21.1 57 13.9 63 63 Calm 30.19 1022 9 14 0.00 0.00
9:53 am 09:53 Sunny 78 25.6 56 13.3 47 47 Calm 30.19 1022 10 16 0.00 0.00
10:53 am 10:53 Sunny 84 28.9 53 11.7 35 35 W 5 7 30.19 1022 10 16 0.00 0.00
11:53 am 11:53 Sunny 88 31.1 52 11.1 29 29 VRB 3 6 30.18 1022 10 16 0.00 0.00
12:53 pm 12:53 Sunny 90 32.2 53 11.7 29 29 N 5 7 30.16 1021 10 16 0.00 0.00
1:53 pm 13:53 Sunny 90 32.2 53 11.7 29 29 NNE 7 11 30.13 1020 10 16 0.00 0.00
2:53 pm 14:53 Sunny 89 31.7 53 11.7 29 29 SE 6 9 30.10 1019 10 16 0.00 0.00
3:53 pm 15:53 Mostly Cloudy 89 31.7 54 12.2 30 30 E 6 9 30.09 1019 10 16 0.00 0.00
4:53 pm 16:53 Mostly Sunny 85 29.4 56 13.3 37 37 NE 8 13 30.10 1019 10 16 0.00 0.00
5:53 pm 17:53 Sunny 84 28.9 58 14.4 41 41 NNE 6 9 30.10 1019 10 16 0.00 0.00
6:53 pm 18:53 Clear 80 26.7 59 15 49 49 NNE 5 7 30.11 1020 10 16 0.00 0.00
7:53 pm 19:53 Mostly Cloudy 78 25.6 61 16.1 56 56 N 5 7 30.14 1021 10 16 0.00 0.00
8:53 pm 20:53 Clear 78 25.6 58 14.4 50 50 NNE 8 13 30.16 1021 10 16 0.00 0.00
9:53 pm 21:53 Clear 78 25.6 56 13.3 47 47 NNE 7 11 30.17 1022 10 16 0.00 0.00
10:53 pm 22:53 Clear 76 24.4 55 12.8 48 48 NE 7 11 30.19 1022 10 16 0.00 0.00
11:53 pm 23:53 Clear 74 23.3 55 12.8 52 52 NE 6 9 30.19 1023 10 16 0.00 0.00

Powered by AerisWeather